Retour au catalogue

FENGYUN 1C DEB

ActifSSO
NORAD 38809·DEBRIS·🇨🇳 China

Lancé May 10, 1999 depuis Taiyuan Satellite Launch Center

Loading…

Prochains Passages (prochaines 24 heures)

TLE

FraisSource: Space-Track

Époque: Sep 14, 2026, 06:14 UTC

1 38809U 99025EUZ 26257.25981622  .00000631  00000-0  25637-3 0  9996
2 38809  98.5880 263.9336 0220050 252.3675 105.3363 14.18842394731128

Suivez FENGYUN 1C DEB en temps réel avec AllMySat

Download on the App Store